Location: City of Moscow
(46.7306°N, 116.9989°W)
Time: 17:02:47
(UTC+00:00)

Cosmos 2237 Rocket - Pass Details

Date: 11 December 2025
Orbit: 835 x 848 km, 71.0° (Epoch: 15 January)

Event Time Altitude Azimuth Distance (km) Brightness Sun altitude
Exits shadow 14:14:31 - 340° (NNW) 3,224 4.8 -11.2°
Reaches altitude 10° 14:16:52 10° 351° (N) 2,457 4.3 -10.8°
Maximum altitude 14:21:37 27° 48° (NE) 1,556 3.9 -10.1°
Drops below altitude 10° 14:26:21 10° 106° (ESE) 2,450 6.2 -9.3°
Sets 14:29:09 0° 118° (ESE) 3,383 7.8 -8.9°
